sat.trackr.live / text

‹ back to catalog

STARLINK-35328

NORAD 65652 · 2025-211A

PAYLOAD ACTIVE UNKNOWN

§ Identity

Operator
Country
US
Launch date
2025-09-19
Launch site
AFWTR
Launch vehicle
Mass (kg)
RCS (m²)

Purposes: comms

External: N2YO · Heavens-Above · Gunter

§ Orbital elements

Epoch: 2026-05-25T02:03:23.761152Z

Period
95.64 min
Inclination
97.4494°
Eccentricity
0.0001977
Mean motion
15.05648350 rev/d
Perigee alt
548.1 km
Apogee alt
550.9 km
Semi-major
6,927.7 km
B*
2.8632e-4
RAAN
188.9456°
Arg perigee
182.3762°
Mean anomaly
177.7456°
Rev number
3,853

§ Raw data

STARLINK-353281 65652U 25211A   26145.08569168  .00004075  00000+0  28632-3 0  99952 65652  97.4494 188.9456 0001977 182.3762 177.7456 15.05648350 38530

JSON: /api/v1/satellites/65652 · /tle

For live sub-satellite position, see the globe view (requires WebGL).

§ Visibility from observer

Set your observer location to see the next 7 days of passes ≥ 10°. The values pass through the URL so the page stays shareable.

No JS? Fill the form by hand. The geolocation button needs JavaScript.